QPF
0.01 0.01 0.01 0.00 0.00 0.01 0.01 0.00 0.00 0.00 0.00 0.00 0.00 0.00 0.00 0.00 0.00 0.00 0.00 0.00 0.00 0.00 0.00 0.00 0.00 0.00 0.01 0.05 0.09 0.14 0.25 0.29 0.14 0.08 0.07 0.05 0.02 0.01 0.00 0.00 0.00 0.00 0.01 0.01
0.00 0.01 0.01 0.01 0.00 0.00 0.00 0.00 0.00 0.00 0.00 0.00 0.00 0.00 0.00 0.00 0.00 0.00 0.00 0.00 0.00 0.00 0.00 0.00 0.00 0.01 0.03 0.12 0.20 0.21 0.27 0.33 0.24 0.13 0.08 0.05 0.02 0.01 0.01 0.00 0.00 0.00 0.01 0.08
0.00 0.00 0.00 0.00 0.00 0.00 0.00 0.00 0.00 0.00 0.00 0.00 0.00 0.00 0.00 0.00 0.00 0.00 0.00 0.00 0.00 0.00 0.00 0.00 0.00 0.01 0.02 0.07 0.12 0.17 0.18 0.21 0.15 0.08 0.07 0.10 0.08 0.06 0.04 0.00 0.00 0.00 0.00 0.05
0.00 0.00 0.00 0.00 0.00 0.00 0.00 0.00 0.00 0.00 0.00 0.00 0.00 0.00 0.00 0.00 0.00 0.00 0.00 0.00 0.00 0.00 0.00 0.00 0.00 0.00 0.01 0.03 0.05 0.07 0.08 0.06 0.04 0.04 0.09 0.17 0.23 0.17 0.06 0.00 0.00 0.01 0.01 0.04
0.00 0.00 0.00 0.00 0.00 0.00 0.00 0.00 0.00 0.00 0.00 0.00 0.00 0.00 0.00 0.00 0.00 0.00 0.00 0.00 0.00 0.00 0.00 0.00 0.00 0.00 0.00 0.01 0.01 0.02 0.03 0.01 0.01 0.02 0.05 0.11 0.11 0.11 0.09 0.04 0.01 0.01 0.01 0.02
0.00 0.00 0.00 0.00 0.00 0.00 0.00 0.00 0.00 0.00 0.00 0.00 0.00 0.00 0.00 0.00 0.00 0.00 0.00 0.00 0.00 0.00 0.00 0.00 0.00 0.00 0.00 0.01 0.01 0.01 0.02 0.02 0.01 0.01 0.02 0.03 0.06 0.14 0.36 0.31 0.17 0.17 0.15 0.04
0.00 0.00 0.00 0.00 0.00 0.00 0.00 0.00 0.00 0.00 0.00 0.00 0.00 0.00 0.00 0.00 0.00 0.00 0.00 0.00 0.00 0.00 0.00 0.00 0.00 0.00 0.00 0.00 0.01 0.01 0.02 0.03 0.03 0.03 0.01 0.02 0.05 0.08 0.29 0.37 0.24 0.20 0.20 0.15
0.00 0.00 0.00 0.00 0.00 0.00 0.00 0.00 0.00 0.00 0.00 0.00 0.00 0.00 0.00 0.00 0.00 0.00 0.00 0.00 0.00 0.00 0.00 0.00 0.00 0.00 0.00 0.01 0.01 0.01 0.02 0.06 0.07 0.03 0.01 0.01 0.03 0.03 0.06 0.10 0.10 0.08 0.07 0.07
0.00 0.00 0.00 0.00 0.00 0.00 0.00 0.00 0.00 0.00 0.00 0.00 0.00 0.00 0.00 0.00 0.00 0.00 0.00 0.00 0.00 0.00 0.00 0.00 0.00 0.00 0.01 0.01 0.01 0.01 0.04 0.11 0.13 0.11 0.10 0.06 0.04 0.09 0.11 0.06 0.06 0.08 0.08 0.07
0.00 0.00 0.00 0.00 0.00 0.00 0.00 0.00 0.00 0.00 0.00 0.00 0.00 0.00 0.00 0.00 0.00 0.00 0.00 0.00 0.00 0.00 0.00 0.00 0.00 0.00 0.00 0.00 0.01 0.00 0.02 0.08 0.20 0.31 0.30 0.23 0.20 0.23 0.33 0.18 0.07 0.04 0.03 0.04
0.00 0.00 0.00 0.00 0.00 0.00 0.00 0.00 0.00 0.00 0.00 0.01 0.02 0.01 0.00 0.00 0.00 0.00 0.00 0.00 0.00 0.00 0.00 0.00 0.00 0.00 0.00 0.00 0.00 0.00 0.01 0.04 0.08 0.12 0.14 0.18 0.26 0.31 0.36 0.28 0.19 0.06 0.02 0.01
0.01 0.00 0.00 0.00 0.00 0.00 0.00 0.00 0.00 0.02 0.02 0.04 0.08 0.02 0.00 0.00 0.00 0.00 0.00 0.00 0.00 0.00 0.00 0.00 0.00 0.00 0.00 0.00 0.00 0.00 0.01 0.02 0.04 0.04 0.05 0.08 0.15 0.24 0.23 0.13 0.07 0.02 0.01 0.01
0.02 0.04 0.07 0.06 0.04 0.00 0.00 0.00 0.00 0.00 0.00 0.02 0.06 0.02 0.00 0.00 0.00 0.00 0.00 0.00 0.00 0.00 0.00 0.00 0.00 0.00 0.00 0.00 0.00 0.00 0.00 0.00 0.01 0.01 0.04 0.05 0.05 0.08 0.07 0.03 0.01 0.00 0.00 0.00
0.02 0.01 0.06 0.06 0.03 0.01 0.01 0.01 0.01 0.00 0.00 0.01 0.01 0.00 0.00 0.00 0.00 0.00 0.00 0.00 0.00 0.00 0.00 0.00 0.00 0.00 0.00 0.00 0.00 0.00 0.00 0.01 0.02 0.02 0.03 0.03 0.03 0.02 0.01 0.01 0.00 0.00 0.00 0.01
0.00 0.00 0.00 0.00 0.00 0.00 0.00 0.01 0.01 0.01 0.00 0.00 0.00 0.00 0.00 0.00 0.00 0.00 0.00 0.00 0.00 0.00 0.00 0.00 0.00 0.00 0.00 0.00 0.00 0.00 0.00 0.01 0.01 0.01 0.01 0.01 0.01 0.01 0.00 0.00 0.00 0.00 0.00 0.01
0.01 0.01 0.01 0.01 0.01 0.01 0.00 0.00 0.00 0.00 0.00 0.00 0.00 0.00 0.00 0.00 0.00 0.00 0.00 0.00 0.00 0.00 0.00 0.00 0.00 0.00 0.00 0.00 0.00 0.00 0.01 0.01 0.01 0.01 0.01 0.01 0.01 0.00 0.00 0.00 0.00 0.00 0.01 0.01
0.05 0.10 0.13 0.10 0.06 0.03 0.01 0.00 0.00 0.00 0.00 0.00 0.00 0.00 0.00 0.00 0.00 0.00 0.00 0.00 0.00 0.00 0.00 0.00 0.00 0.00 0.00 0.00 0.01 0.01 0.00 0.01 0.01 0.01 0.01 0.01 0.00 0.00 0.00 0.00 0.00 0.00 0.02 0.03
0.06 0.13 0.16 0.12 0.10 0.06 0.01 0.00 0.00 0.00 0.00 0.00 0.00 0.00 0.00 0.00 0.00 0.00 0.00 0.00 0.00 0.00 0.00 0.00 0.00 0.00 0.00 0.00 0.00 0.01 0.01 0.00 0.01 0.02 0.01 0.01 0.00 0.00 0.00 0.00 0.00 0.00 0.01 0.02
0.05 0.11 0.16 0.12 0.07 0.03 0.00 0.00 0.00 0.00 0.00 0.00 0.00 0.00 0.00 0.00 0.00 0.00 0.00 0.00 0.00 0.00 0.00 0.00 0.00 0.00 0.00 0.00 0.00 0.00 0.01 0.01 0.02 0.03 0.02 0.02 0.02 0.02 0.02 0.01 0.01 0.00 0.00 0.01
0.02 0.07 0.17 0.13 0.08 0.03 0.00 0.00 0.00 0.00 0.00 0.00 0.00 0.00 0.00 0.00 0.00 0.00 0.00 0.00 0.00 0.00 0.00 0.00 0.00 0.00 0.00 0.00 0.00 0.01 0.02 0.02 0.04 0.05 0.05 0.05 0.04 0.04 0.03 0.02 0.01 0.01 0.01 0.01
0.03 0.08 0.13 0.12 0.08 0.02 0.00 0.00 0.00 0.00 0.00 0.00 0.00 0.00 0.00 0.00 0.00 0.00 0.00 0.00 0.00 0.00 0.00 0.00 0.00 0.00 0.00 0.00 0.00 0.01 0.04 0.05 0.05 0.04 0.04 0.04 0.04 0.05 0.04 0.02 0.02 0.04 0.05 0.04
0.02 0.04 0.05 0.02 0.02 0.01 0.00 0.00 0.00 0.00 0.00 0.00 0.00 0.00 0.00 0.00 0.00 0.00 0.00 0.00 0.00 0.00 0.00 0.00 0.00 0.00 0.00 0.00 0.00 0.00 0.02 0.03 0.03 0.03 0.04 0.05 0.07 0.07 0.04 0.04 0.05 0.06 0.07 0.07
0.00 0.00 0.00 0.00 0.00 0.00 0.00 0.00 0.00 0.00 0.00 0.00 0.00 0.00 0.00 0.00 0.00 0.00 0.00 0.00 0.00 0.00 0.00 0.00 0.00 0.00 0.00 0.00 0.00 0.00 0.00 0.00 0.00 0.02 0.04 0.06 0.07 0.06 0.04 0.05 0.10 0.12 0.12 0.08
0.00 0.00 0.01 0.01 0.00 0.00 0.00 0.00 0.00 0.00 0.00 0.00 0.00 0.00 0.00 0.00 0.00 0.00 0.00 0.00 0.00 0.00 0.00 0.00 0.00 0.00 0.00 0.00 0.00 0.00 0.00 0.00 0.00 0.01 0.02 0.04 0.04 0.02 0.02 0.05 0.09 0.12 0.14 0.14
0.00 0.00 0.00 0.00 0.00 0.00 0.00 0.00 0.00 0.00 0.00 0.00 0.00 0.00 0.00 0.00 0.00 0.00 0.00 0.00 0.00 0.00 0.00 0.00 0.00 0.00 0.00 0.00 0.00 0.00 0.00 0.00 0.01 0.01 0.01 0.01 0.02 0.02 0.01 0.04 0.08 0.10 0.13 0.12
0.01 0.00 0.00 0.00 0.00 0.00 0.00 0.00 0.00 0.00 0.00 0.00 0.00 0.00 0.00 0.00 0.00 0.00 0.00 0.00 0.00 0.00 0.00 0.00 0.00 0.00 0.00 0.00 0.00 0.01 0.03 0.01 0.04 0.06 0.02 0.02 0.02 0.04 0.04 0.04 0.04 0.02 0.04 0.02
MSLP
1009.33 1009.73 1010.06 1010.31 1010.49 1010.60 1010.65 1010.64 1010.58 1010.44 1010.21 1009.90 1009.49 1009.02 1008.52 1008.03 1007.59 1007.25 1007.02 1006.89 1006.86 1006.90 1006.97 1007.05 1007.11 1007.16 1007.22 1007.31 1007.46 1007.71 1008.07 1008.54 1009.08 1009.68 1010.26 1010.80 1011.26 1011.61 1011.84 1011.99 1012.09 1012.16 1012.26 1012.41
1009.78 1010.06 1010.28 1010.43 1010.53 1010.60 1010.64 1010.66 1010.63 1010.54 1010.35 1010.05 1009.65 1009.17 1008.66 1008.17 1007.74 1007.42 1007.24 1007.18 1007.23 1007.34 1007.47 1007.58 1007.64 1007.68 1007.69 1007.74 1007.85 1008.06 1008.41 1008.87 1009.43 1010.04 1010.64 1011.18 1011.61 1011.91 1012.09 1012.16 1012.18 1012.19 1012.23 1012.34
1009.93 1010.11 1010.22 1010.29 1010.35 1010.41 1010.49 1010.57 1010.61 1010.59 1010.46 1010.20 1009.81 1009.32 1008.79 1008.27 1007.83 1007.53 1007.37 1007.36 1007.47 1007.64 1007.83 1007.98 1008.08 1008.11 1008.12 1008.14 1008.22 1008.42 1008.75 1009.21 1009.77 1010.38 1010.98 1011.50 1011.90 1012.16 1012.27 1012.28 1012.23 1012.17 1012.17 1012.25
1009.77 1009.85 1009.88 1009.91 1009.96 1010.06 1010.22 1010.40 1010.56 1010.64 1010.59 1010.38 1010.01 1009.51 1008.93 1008.36 1007.88 1007.54 1007.37 1007.38 1007.52 1007.74 1007.98 1008.19 1008.33 1008.40 1008.42 1008.44 1008.52 1008.71 1009.02 1009.47 1010.02 1010.61 1011.19 1011.68 1012.04 1012.25 1012.32 1012.28 1012.19 1012.10 1012.07 1012.13
1009.35 1009.35 1009.33 1009.34 1009.43 1009.62 1009.90 1010.22 1010.53 1010.74 1010.79 1010.64 1010.28 1009.75 1009.11 1008.46 1007.90 1007.48 1007.26 1007.24 1007.38 1007.64 1007.93 1008.19 1008.39 1008.51 1008.58 1008.63 1008.72 1008.91 1009.21 1009.63 1010.15 1010.70 1011.23 1011.69 1012.01 1012.18 1012.22 1012.16 1012.05 1011.95 1011.92 1011.99
1008.80 1008.72 1008.66 1008.69 1008.84 1009.15 1009.58 1010.07 1010.55 1010.91 1011.07 1010.98 1010.63 1010.06 1009.35 1008.59 1007.91 1007.39 1007.08 1006.99 1007.11 1007.37 1007.70 1008.02 1008.29 1008.48 1008.61 1008.72 1008.84 1009.02 1009.31 1009.70 1010.17 1010.67 1011.14 1011.54 1011.82 1011.97 1011.99 1011.92 1011.83 1011.75 1011.75 1011.84
1008.24 1008.09 1008.01 1008.07 1008.31 1008.74 1009.33 1009.99 1010.63 1011.13 1011.40 1011.37 1011.03 1010.42 1009.63 1008.76 1007.95 1007.30 1006.87 1006.70 1006.77 1007.01 1007.36 1007.74 1008.08 1008.36 1008.57 1008.73 1008.89 1009.09 1009.36 1009.71 1010.12 1010.55 1010.96 1011.30 1011.54 1011.66 1011.68 1011.63 1011.57 1011.53 1011.56 1011.69
1007.80 1007.60 1007.51 1007.60 1007.91 1008.45 1009.17 1009.98 1010.76 1011.37 1011.73 1011.75 1011.42 1010.78 1009.91 1008.94 1008.01 1007.23 1006.69 1006.42 1006.42 1006.63 1006.99 1007.41 1007.82 1008.18 1008.47 1008.70 1008.91 1009.13 1009.39 1009.69 1010.05 1010.41 1010.76 1011.05 1011.25 1011.35 1011.38 1011.35 1011.32 1011.32 1011.39 1011.56
1007.56 1007.31 1007.22 1007.33 1007.70 1008.31 1009.11 1010.01 1010.87 1011.57 1011.98 1012.03 1011.71 1011.04 1010.13 1009.08 1008.06 1007.18 1006.54 1006.18 1006.12 1006.29 1006.65 1007.09 1007.56 1007.98 1008.35 1008.64 1008.90 1009.14 1009.40 1009.68 1009.98 1010.30 1010.59 1010.83 1011.00 1011.10 1011.14 1011.13 1011.13 1011.16 1011.26 1011.44
1007.54 1007.28 1007.17 1007.29 1007.67 1008.31 1009.13 1010.04 1010.92 1011.63 1012.05 1012.12 1011.79 1011.12 1010.19 1009.12 1008.05 1007.11 1006.41 1005.99 1005.87 1006.01 1006.34 1006.80 1007.29 1007.77 1008.19 1008.55 1008.85 1009.12 1009.38 1009.65 1009.93 1010.21 1010.47 1010.69 1010.85 1010.95 1011.00 1011.01 1011.02 1011.07 1011.17 1011.34
1007.72 1007.46 1007.36 1007.47 1007.83 1008.41 1009.18 1010.03 1010.84 1011.49 1011.87 1011.91 1011.59 1010.93 1010.02 1008.96 1007.91 1006.97 1006.26 1005.81 1005.66 1005.76 1006.08 1006.52 1007.02 1007.52 1007.98 1008.37 1008.72 1009.02 1009.30 1009.58 1009.86 1010.13 1010.39 1010.61 1010.78 1010.90 1010.96 1010.99 1011.01 1011.05 1011.12 1011.26
1008.03 1007.81 1007.72 1007.81 1008.10 1008.59 1009.23 1009.93 1010.60 1011.12 1011.41 1011.39 1011.05 1010.42 1009.56 1008.58 1007.60 1006.72 1006.04 1005.62 1005.46 1005.54 1005.82 1006.24 1006.73 1007.22 1007.68 1008.10 1008.46 1008.79 1009.10 1009.41 1009.71 1010.00 1010.29 1010.54 1010.74 1010.90 1010.99 1011.04 1011.07 1011.09 1011.12 1011.19
1008.40 1008.25 1008.19 1008.26 1008.47 1008.81 1009.26 1009.75 1010.21 1010.54 1010.68 1010.57 1010.21 1009.61 1008.84 1007.97 1007.11 1006.35 1005.76 1005.38 1005.24 1005.32 1005.57 1005.95 1006.39 1006.85 1007.29 1007.70 1008.07 1008.42 1008.76 1009.10 1009.44 1009.78 1010.11 1010.42 1010.68 1010.88 1011.03 1011.11 1011.14 1011.15 1011.14 1011.15
1008.79 1008.74 1008.72 1008.76 1008.87 1009.04 1009.27 1009.50 1009.70 1009.80 1009.75 1009.54 1009.14 1008.58 1007.90 1007.17 1006.47 1005.86 1005.39 1005.11 1005.02 1005.10 1005.33 1005.66 1006.04 1006.44 1006.83 1007.21 1007.57 1007.92 1008.28 1008.65 1009.03 1009.42 1009.82 1010.19 1010.52 1010.80 1011.00 1011.13 1011.19 1011.20 1011.18 1011.13
1009.16 1009.22 1009.25 1009.27 1009.27 1009.26 1009.25 1009.21 1009.12 1008.97 1008.73 1008.38 1007.94 1007.42 1006.85 1006.27 1005.75 1005.31 1005.00 1004.84 1004.81 1004.91 1005.12 1005.39 1005.71 1006.03 1006.36 1006.68 1007.00 1007.34 1007.69 1008.08 1008.50 1008.94 1009.39 1009.83 1010.24 1010.59 1010.87 1011.07 1011.18 1011.22 1011.19 1011.13
1009.48 1009.65 1009.73 1009.71 1009.61 1009.43 1009.19 1008.89 1008.53 1008.14 1007.70 1007.23 1006.75 1006.26 1005.79 1005.38 1005.04 1004.79 1004.64 1004.60 1004.66 1004.79 1004.98 1005.21 1005.45 1005.70 1005.95 1006.20 1006.47 1006.76 1007.09 1007.47 1007.90 1008.37 1008.87 1009.36 1009.84 1010.26 1010.62 1010.89 1011.08 1011.17 1011.18 1011.14
1009.75 1009.98 1010.08 1010.03 1009.83 1009.50 1009.06 1008.53 1007.95 1007.34 1006.74 1006.17 1005.66 1005.21 1004.85 1004.59 1004.43 1004.36 1004.37 1004.46 1004.60 1004.78 1004.97 1005.16 1005.33 1005.50 1005.67 1005.84 1006.04 1006.28 1006.57 1006.92 1007.34 1007.81 1008.31 1008.84 1009.36 1009.84 1010.27 1010.62 1010.88 1011.05 1011.12 1011.13
1009.90 1010.14 1010.23 1010.13 1009.84 1009.39 1008.79 1008.09 1007.34 1006.59 1005.88 1005.26 1004.74 1004.35 1004.10 1003.98 1003.97 1004.07 1004.24 1004.44 1004.67 1004.89 1005.09 1005.25 1005.38 1005.49 1005.59 1005.69 1005.81 1005.99 1006.22 1006.52 1006.89 1007.33 1007.82 1008.34 1008.87 1009.39 1009.86 1010.27 1010.61 1010.85 1011.00 1011.08
1009.88 1010.07 1010.09 1009.92 1009.56 1009.01 1008.32 1007.52 1006.69 1005.87 1005.12 1004.49 1004.01 1003.69 1003.55 1003.56 1003.70 1003.94 1004.23 1004.55 1004.85 1005.12 1005.33 1005.49 1005.59 1005.66 1005.70 1005.75 1005.82 1005.93 1006.10 1006.34 1006.65 1007.03 1007.47 1007.95 1008.46 1008.97 1009.46 1009.90 1010.29 1010.60 1010.82 1010.97
1009.65 1009.71 1009.63 1009.37 1008.93 1008.32 1007.59 1006.77 1005.93 1005.12 1004.40 1003.83 1003.43 1003.21 1003.17 1003.31 1003.57 1003.93 1004.33 1004.73 1005.10 1005.41 1005.65 1005.81 1005.91 1005.96 1005.98 1005.99 1006.02 1006.09 1006.21 1006.39 1006.64 1006.95 1007.32 1007.74 1008.19 1008.65 1009.12 1009.56 1009.96 1010.31 1010.59 1010.80
1009.18 1009.06 1008.82 1008.45 1007.94 1007.31 1006.59 1005.81 1005.03 1004.31 1003.70 1003.23 1002.94 1002.85 1002.93 1003.18 1003.54 1003.99 1004.47 1004.93 1005.35 1005.70 1005.96 1006.14 1006.25 1006.31 1006.33 1006.35 1006.37 1006.42 1006.51 1006.65 1006.84 1007.08 1007.37 1007.71 1008.08 1008.47 1008.88 1009.28 1009.67 1010.02 1010.32 1010.56
1008.49 1008.14 1007.73 1007.24 1006.68 1006.04 1005.37 1004.68 1004.02 1003.44 1002.98 1002.66 1002.52 1002.55 1002.75 1003.09 1003.54 1004.05 1004.58 1005.08 1005.53 1005.91 1006.20 1006.41 1006.54 1006.63 1006.68 1006.71 1006.75 1006.81 1006.90 1007.01 1007.17 1007.35 1007.58 1007.83 1008.12 1008.42 1008.75 1009.09 1009.42 1009.74 1010.03 1010.28
1007.64 1007.07 1006.47 1005.87 1005.25 1004.63 1004.03 1003.46 1002.95 1002.54 1002.25 1002.10 1002.11 1002.27 1002.58 1003.00 1003.50 1004.05 1004.60 1005.13 1005.59 1005.98 1006.30 1006.53 1006.70 1006.83 1006.92 1007.00 1007.08 1007.17 1007.28 1007.40 1007.54 1007.69 1007.86 1008.05 1008.25 1008.47 1008.71 1008.96 1009.23 1009.49 1009.74 1009.98
1006.75 1005.96 1005.20 1004.49 1003.84 1003.25 1002.73 1002.29 1001.94 1001.70 1001.58 1001.59 1001.73 1002.00 1002.39 1002.86 1003.40 1003.96 1004.52 1005.04 1005.51 1005.90 1006.23 1006.49 1006.70 1006.87 1007.01 1007.14 1007.28 1007.41 1007.56 1007.70 1007.85 1007.99 1008.14 1008.28 1008.42 1008.57 1008.72 1008.90 1009.08 1009.28 1009.49 1009.70
1005.90 1004.94 1004.06 1003.29 1002.62 1002.06 1001.62 1001.30 1001.09 1001.00 1001.02 1001.15 1001.40 1001.75 1002.18 1002.68 1003.22 1003.78 1004.32 1004.83 1005.28 1005.68 1006.02 1006.30 1006.53 1006.74 1006.93 1007.12 1007.30 1007.49 1007.68 1007.86 1008.03 1008.18 1008.32 1008.44 1008.54 1008.64 1008.74 1008.85 1008.98 1009.12 1009.28 1009.46
1005.16 1004.10 1003.16 1002.36 1001.70 1001.19 1000.83 1000.60 1000.50 1000.51 1000.63 1000.84 1001.14 1001.52 1001.97 1002.46 1002.98 1003.51 1004.03 1004.51 1004.96 1005.35 1005.69 1005.99 1006.25 1006.49 1006.72 1006.95 1007.17 1007.40 1007.62 1007.84 1008.03 1008.21 1008.36 1008.48 1008.57 1008.65 1008.73 1008.80 1008.89 1009.00 1009.13 1009.29
Thickness
5773 5763 5755 5764 5775 5772 5763 5760 5765 5776 5793 5786 5778 5779 5787 5799 5800 5799 5798 5795 5791 5786 5786 5783 5782 5785 5781 5773 5767 5760 5750 5740 5741 5737 5730 5724 5720 5721 5722 5722 5723 5726 5727 5729
5755 5752 5767 5777 5780 5775 5765 5759 5761 5773 5789 5784 5776 5777 5790 5797 5799 5794 5788 5784 5780 5772 5773 5769 5768 5770 5766 5760 5755 5751 5746 5738 5736 5731 5726 5720 5717 5716 5716 5717 5720 5724 5727 5725
5746 5761 5779 5775 5769 5765 5761 5757 5759 5763 5775 5779 5769 5767 5785 5793 5794 5791 5787 5780 5771 5764 5762 5758 5756 5756 5755 5751 5748 5746 5740 5734 5730 5726 5720 5714 5710 5709 5708 5709 5713 5720 5725 5720
5753 5768 5770 5764 5760 5760 5751 5765 5765 5764 5755 5750 5760 5742 5768 5787 5780 5779 5777 5772 5766 5760 5760 5755 5750 5749 5749 5747 5745 5741 5735 5729 5724 5720 5713 5706 5700 5696 5701 5707 5710 5716 5721 5723
5751 5765 5764 5758 5762 5764 5759 5769 5765 5761 5750 5744 5753 5745 5765 5780 5767 5766 5767 5766 5763 5760 5759 5756 5752 5748 5747 5745 5741 5737 5731 5725 5719 5715 5709 5704 5698 5698 5700 5704 5707 5711 5716 5719
5756 5769 5770 5765 5770 5771 5768 5762 5758 5755 5744 5727 5747 5747 5751 5769 5762 5762 5764 5764 5762 5760 5758 5756 5753 5749 5745 5742 5737 5732 5726 5719 5714 5710 5707 5703 5698 5695 5693 5693 5698 5703 5708 5711
5738 5752 5765 5766 5751 5760 5756 5739 5723 5723 5719 5725 5756 5747 5751 5768 5770 5764 5759 5758 5758 5757 5755 5752 5748 5743 5739 5736 5731 5726 5719 5713 5710 5706 5704 5702 5699 5695 5688 5686 5692 5695 5698 5700
5732 5739 5759 5762 5751 5748 5749 5742 5721 5714 5717 5734 5752 5744 5759 5767 5767 5765 5761 5755 5753 5753 5750 5746 5745 5740 5735 5731 5726 5720 5713 5708 5705 5702 5701 5700 5698 5696 5694 5693 5696 5697 5698 5699
5739 5745 5769 5768 5767 5758 5745 5745 5752 5736 5730 5722 5735 5754 5758 5761 5757 5756 5753 5750 5748 5749 5747 5744 5741 5736 5730 5724 5720 5715 5710 5705 5701 5699 5697 5695 5694 5693 5691 5693 5696 5696 5696 5697
5746 5733 5748 5760 5762 5759 5756 5754 5741 5721 5703 5698 5718 5734 5734 5739 5744 5747 5748 5747 5748 5748 5746 5743 5738 5732 5726 5720 5715 5712 5709 5704 5699 5695 5693 5691 5689 5688 5684 5686 5692 5695 5696 5698
5744 5728 5733 5742 5737 5738 5741 5739 5734 5725 5718 5696 5689 5712 5746 5744 5747 5745 5745 5747 5747 5745 5742 5739 5734 5728 5722 5716 5711 5707 5704 5701 5696 5692 5689 5686 5684 5684 5681 5681 5684 5689 5692 5695
5734 5726 5718 5729 5746 5753 5746 5739 5729 5708 5705 5709 5692 5706 5755 5750 5751 5748 5746 5747 5748 5745 5741 5737 5731 5724 5718 5713 5708 5704 5700 5696 5692 5689 5685 5681 5679 5678 5676 5677 5680 5685 5687 5689
5719 5704 5694 5704 5720 5735 5734 5737 5734 5727 5717 5707 5695 5708 5751 5746 5745 5748 5746 5746 5745 5743 5738 5732 5727 5721 5716 5711 5706 5702 5698 5694 5690 5686 5681 5677 5675 5674 5673 5674 5676 5679 5680 5681
5721 5705 5695 5688 5703 5718 5718 5721 5721 5715 5706 5705 5710 5718 5733 5735 5735 5740 5744 5746 5745 5741 5735 5728 5722 5719 5714 5710 5705 5701 5698 5696 5691 5685 5679 5674 5672 5672 5672 5671 5672 5672 5672 5674
5714 5701 5707 5713 5719 5719 5717 5715 5711 5705 5707 5705 5713 5718 5726 5734 5737 5740 5744 5745 5741 5737 5733 5726 5719 5715 5712 5707 5704 5701 5698 5695 5691 5684 5678 5674 5672 5670 5669 5667 5666 5666 5666 5668
5709 5698 5700 5701 5710 5710 5708 5714 5716 5714 5716 5716 5717 5718 5736 5741 5743 5742 5742 5741 5737 5734 5732 5729 5723 5716 5711 5707 5702 5699 5696 5693 5688 5681 5676 5673 5671 5669 5666 5663 5661 5660 5660 5661
5693 5685 5676 5674 5688 5688 5685 5706 5711 5715 5721 5718 5711 5721 5735 5734 5735 5736 5739 5739 5734 5731 5728 5724 5721 5716 5712 5708 5704 5697 5693 5690 5684 5678 5673 5668 5666 5664 5661 5658 5656 5654 5653 5654
5690 5678 5665 5659 5661 5651 5691 5718 5719 5717 5722 5727 5728 5732 5735 5734 5735 5738 5738 5733 5729 5725 5720 5715 5711 5708 5708 5708 5704 5698 5692 5686 5680 5673 5668 5663 5659 5656 5653 5651 5649 5649 5648 5648
5686 5666 5651 5646 5645 5662 5693 5713 5717 5712 5715 5734 5734 5735 5736 5735 5731 5731 5734 5730 5723 5717 5711 5705 5701 5699 5698 5697 5696 5693 5687 5681 5674 5668 5663 5659 5654 5649 5646 5644 5643 5644 5643 5644
5677 5663 5646 5642 5642 5652 5698 5723 5731 5721 5707 5736 5737 5732 5732 5728 5711 5714 5725 5722 5715 5709 5703 5697 5693 5691 5687 5685 5684 5680 5675 5670 5664 5659 5654 5650 5647 5642 5638 5637 5638 5639 5639 5640
5664 5656 5648 5646 5651 5673 5717 5728 5725 5698 5704 5732 5735 5732 5730 5725 5720 5719 5720 5713 5706 5699 5693 5689 5683 5677 5674 5673 5671 5666 5662 5656 5653 5648 5643 5638 5635 5633 5631 5630 5632 5633 5633 5634
5670 5663 5662 5668 5668 5686 5724 5724 5716 5720 5735 5736 5734 5733 5730 5728 5724 5719 5713 5704 5697 5690 5685 5680 5674 5668 5665 5663 5660 5655 5648 5645 5641 5635 5629 5625 5622 5622 5623 5623 5624 5625 5626 5626
5690 5695 5694 5696 5700 5721 5732 5731 5735 5738 5733 5733 5733 5733 5730 5725 5721 5715 5706 5698 5691 5684 5677 5672 5667 5661 5658 5655 5650 5643 5639 5634 5629 5622 5616 5611 5609 5610 5614 5616 5616 5617 5618 5619
5694 5718 5706 5697 5714 5727 5732 5736 5738 5738 5734 5735 5733 5730 5727 5721 5721 5713 5704 5696 5687 5680 5673 5667 5663 5658 5653 5649 5643 5636 5631 5626 5619 5611 5604 5599 5597 5600 5606 5610 5611 5612 5613 5615
5680 5703 5710 5710 5723 5728 5731 5733 5735 5735 5734 5733 5732 5730 5726 5723 5720 5712 5702 5694 5685 5677 5671 5665 5661 5657 5653 5647 5639 5632 5625 5619 5612 5605 5599 5593 5591 5593 5598 5604 5606 5609 5611 5614
5689 5700 5705 5709 5726 5723 5723 5732 5735 5731 5730 5730 5729 5727 5727 5723 5718 5710 5701 5693 5684 5676 5670 5665 5661 5657 5653 5645 5637 5630 5624 5617 5610 5603 5598 5593 5591 5592 5596 5599 5601 5603 5607 5609